Theta_e
345 347 347 341 323 321 312 314 320 318 319 326 327 325 324 326 319 318 342 342 340 340 351 352 350 348 346 347 348 346 348 344 341 338 336 336 335 333 332 334 334 333 334 334 334 334 334 334 335
346 344 344 332 317 310 311 318 316 321 325 329 328 327 325 323 331 334 337 343 340 345 349 349 349 347 346 348 346 345 344 341 339 337 336 335 331 331 332 332 331 330 330 331 331 331 332 332 333
345 344 333 325 315 310 311 318 321 325 328 327 327 331 327 326 333 335 341 344 342 345 347 353 349 348 347 346 343 342 342 340 338 336 334 332 331 332 333 332 331 331 331 332 332 332 331 332 332
343 338 334 319 313 316 317 320 324 324 327 329 329 325 331 335 333 334 342 342 343 345 347 351 350 349 348 344 340 338 337 338 339 336 333 331 332 333 333 333 333 333 333 333 334 335 336 335 336
341 334 322 316 315 319 322 324 325 323 325 327 329 324 327 335 339 340 343 342 343 345 346 348 350 350 346 342 340 336 336 337 338 335 333 331 331 332 332 333 333 333 333 334 334 333 333 334 334
331 330 319 313 315 319 323 325 326 324 326 328 327 327 329 340 340 342 343 343 346 346 345 349 351 350 345 341 338 335 338 337 336 335 333 332 333 333 333 334 334 334 335 334 334 333 332 333 334
327 325 316 316 316 317 321 327 325 324 324 327 332 325 332 337 341 344 344 345 347 348 345 349 349 348 344 340 336 334 336 336 335 332 331 332 333 333 334 334 335 336 335 334 334 333 332 332 332
332 327 317 319 317 316 323 325 327 325 327 334 334 325 328 337 343 344 344 345 347 347 345 346 347 345 343 337 336 335 335 333 331 330 334 336 338 337 337 337 336 336 335 333 333 333 333 332 330
333 322 319 316 317 319 324 322 328 330 329 331 332 332 335 342 344 342 341 342 345 346 346 346 344 344 342 338 337 336 335 333 333 336 331 333 335 334 333 334 336 335 331 332 332 332 331 331 330
327 321 318 322 322 322 323 323 325 327 327 328 330 337 340 341 341 339 339 340 344 345 346 346 345 343 341 337 340 341 339 340 339 336 336 335 334 332 331 334 332 330 328 328 327 329 332 331 329
325 319 323 322 324 325 324 323 327 325 323 327 326 332 338 339 341 339 339 341 343 346 348 346 347 347 342 339 340 340 340 339 338 338 338 336 334 334 332 334 332 334 329 331 330 331 330 329 330
321 323 326 326 325 326 323 327 326 328 329 333 332 336 338 338 338 339 339 341 343 345 348 347 346 348 344 342 339 340 339 339 336 338 338 338 333 335 334 331 334 335 331 332 331 328 331 331 332
321 323 327 327 326 327 328 326 326 329 333 334 334 336 337 338 338 341 342 343 344 345 347 348 348 349 346 344 339 340 340 338 338 337 338 339 336 337 336 334 332 333 334 330 329 330 330 331 332
323 325 326 328 328 328 325 325 328 331 335 332 332 333 335 335 338 340 341 342 344 347 348 349 348 350 348 344 340 340 341 340 339 337 337 336 337 338 337 336 332 333 332 332 330 329 330 330 331
325 321 324 326 326 325 327 322 324 331 334 330 330 332 333 334 336 337 339 340 341 342 349 350 350 350 349 345 341 341 341 340 338 337 339 337 337 339 337 335 336 335 334 332 333 333 334 333 330
321 321 315 324 325 325 325 317 327 331 332 330 330 331 332 335 337 337 339 340 342 344 344 351 349 348 350 348 345 342 343 342 339 338 337 338 337 337 339 337 336 334 334 334 331 331 331 331 331
318 312 312 316 326 324 323 319 327 330 328 328 331 332 333 333 334 337 337 335 337 339 340 346 351 347 347 350 347 346 345 342 340 338 336 338 337 336 337 336 337 337 333 335 330 333 330 330 330
311 311 314 313 322 322 320 319 325 328 326 327 329 331 332 333 332 336 336 335 336 338 340 344 347 348 349 348 347 342 341 338 338 337 336 338 337 336 338 337 337 336 333 334 333 333 333 329 329
315 313 312 318 323 321 319 319 321 325 326 327 329 329 331 334 335 336 336 335 335 334 340 341 343 348 346 342 337 335 335 336 336 336 337 338 337 338 339 335 335 335 333 334 334 332 332 331 334
314 313 313 318 322 321 319 318 321 323 326 327 327 329 332 332 332 334 337 336 333 332 337 340 342 347 344 340 338 339 338 338 335 335 337 338 338 339 339 338 334 334 332 333 333 333 330 330 334
314 312 313 314 320 321 319 316 319 323 326 327 328 332 331 331 332 332 336 337 334 333 337 340 343 345 344 342 339 336 336 337 332 332 335 337 337 338 340 339 336 336 335 330 333 333 332 327 331
311 316 316 315 314 309 319 306 316 319 321 323 326 326 329 331 334 335 337 338 339 336 339 340 343 344 344 344 338 337 331 330 332 332 335 338 340 339 339 339 338 338 334 333 333 332 332 333 326
313 317 317 316 315 314 314 310 315 320 318 321 325 327 329 332 333 333 337 338 340 339 337 340 342 343 342 342 340 336 334 332 333 332 337 341 341 339 338 339 339 338 336 336 335 334 334 331 330
319 317 317 317 314 306 313 310 310 314 317 320 325 327 328 330 331 334 337 340 341 341 338 338 339 341 341 340 340 338 336 331 333 333 333 335 337 336 339 337 339 340 338 337 335 336 336 335 334
318 316 307 304 304 302 314 310 314 319 321 321 322 324 328 330 331 333 335 336 339 341 341 338 338 338 340 339 339 338 335 334 337 336 336 335 333 335 338 340 339 338 340 338 338 337 336 336 335
316 316 307 299 300 302 313 307 313 322 326 327 327 326 330 331 332 333 334 336 337 338 343 341 338 338 339 339 339 340 337 334 337 337 336 336 335 336 340 340 340 341 340 339 339 335 335 336 336
315 311 317 310 311 305 310 313 319 323 323 325 325 328 330 331 332 333 336 338 338 340 339 343 341 340 340 341 342 342 342 341 339 338 339 339 342 339 340 337 338 339 339 339 339 335 336 338 336
316 319 310 311 301 299 305 306 310 316 319 322 324 327 329 330 330 332 333 336 337 339 342 343 343 342 344 345 344 344 343 343 343 342 338 340 341 341 340 339 339 339 338 339 340 336 337 337 336
315 313 314 314 310 302 300 304 319 320 323 323 325 327 328 327 328 329 330 331 334 333 336 341 342 341 343 344 344 344 344 343 344 343 338 339 342 342 342 340 340 339 339 339 339 339 336 333 335
317 315 315 309 307 310 308 306 324 325 326 327 327 328 328 328 327 326 328 331 332 333 335 339 343 343 343 342 342 342 342 341 342 343 338 339 342 343 342 341 339 338 337 337 337 334 334 331 331
Wind_Speed
12 11 5 7 7 3 11 12 3 10 7 7 5 5 11 11 10 7 8 8 9 11 13 13 11 9 7 6 7 5 7 6 6 5 4 4 4 4 5 5 5 6 5 5 5 6 6 6 6
6 5 6 6 1 8 11 5 13 10 9 7 6 4 6 11 9 13 12 7 10 12 10 12 10 8 6 7 6 5 6 5 5 5 4 3 3 4 4 5 4 4 5 5 4 4 4 5 6
9 5 6 1 7 10 11 9 10 10 5 3 4 6 4 9 7 8 13 12 12 10 9 12 10 8 7 7 6 5 6 6 5 5 4 4 5 5 6 6 6 6 5 5 5 4 3 3 4
5 7 6 2 12 9 9 8 6 6 5 2 3 10 9 6 8 7 13 12 12 11 10 14 9 8 7 6 5 4 4 6 6 5 4 4 5 6 5 6 6 5 5 4 4 5 5 5 5
6 5 3 8 10 7 4 4 1 5 5 7 2 7 11 9 9 11 12 12 11 10 10 13 9 9 8 7 6 6 5 7 7 6 5 4 4 4 3 4 4 5 4 5 4 4 5 6 7
6 5 2 7 7 5 4 1 4 2 4 8 6 9 10 12 11 11 12 12 10 10 8 12 11 9 8 7 6 6 6 8 6 5 3 2 2 2 1 1 2 3 5 5 6 6 5 6 7
6 4 5 3 5 4 4 2 2 4 3 8 7 7 9 11 9 11 12 11 10 10 9 9 11 10 8 6 7 7 6 6 5 3 3 4 5 4 3 2 1 3 5 6 6 6 6 5 4
5 5 4 2 5 1 5 4 1 2 10 7 0 3 11 13 12 12 12 11 10 10 9 9 8 11 10 11 8 8 7 6 4 2 3 5 7 6 6 6 4 3 6 6 6 7 7 5 2
2 6 1 2 4 5 6 6 2 3 8 4 5 10 10 15 13 13 11 10 9 9 8 8 9 9 7 9 10 9 7 5 6 7 3 8 2 1 4 10 5 5 5 5 6 6 6 7 6
7 4 8 7 6 8 4 7 10 5 6 7 11 10 12 14 12 11 11 11 11 12 11 9 9 9 8 5 9 7 7 3 1 1 0 2 3 6 7 7 4 3 1 1 2 3 8 13 2
2 9 8 3 6 6 4 2 3 2 4 7 12 12 12 12 11 11 11 10 12 12 10 12 10 11 9 8 6 4 4 4 4 2 1 3 1 2 2 1 2 1 3 2 4 3 3 6 6
9 5 8 7 3 1 2 4 5 6 7 5 2 11 12 11 11 10 10 10 10 11 13 14 14 12 10 6 6 5 4 4 4 3 3 2 3 2 2 3 1 1 3 4 4 5 4 4 3
7 4 3 4 3 1 1 3 4 7 5 5 6 10 10 8 6 6 8 9 9 12 12 14 14 13 11 10 5 5 5 5 3 5 4 1 1 1 1 2 3 3 2 4 5 4 4 3 2
6 3 3 2 5 2 5 3 6 6 4 5 5 6 5 4 5 8 9 11 11 11 12 15 15 14 13 10 9 8 6 5 5 4 4 4 2 1 1 1 3 3 4 4 5 4 3 3 3
2 6 3 3 4 1 4 7 4 3 2 3 4 4 2 3 5 8 9 11 12 10 13 13 13 14 13 12 10 8 6 7 5 5 5 5 4 3 4 2 2 2 3 5 2 2 1 2 3
6 4 6 7 2 4 6 4 5 3 1 3 2 3 3 3 4 4 6 9 9 9 8 12 11 13 14 12 10 8 7 6 6 5 5 7 6 4 2 2 2 4 3 3 3 3 3 2 2
5 5 3 3 3 2 5 7 6 5 4 3 2 2 2 3 2 0 4 6 8 6 4 10 12 13 13 11 9 8 7 6 6 6 6 7 6 6 5 3 1 2 3 2 4 2 3 2 3
7 5 1 6 5 3 2 4 6 5 1 1 1 3 4 2 2 3 5 7 6 6 6 9 10 10 10 8 7 5 5 6 6 6 6 7 6 6 5 3 3 3 2 2 2 3 2 4 4
5 7 8 1 2 7 4 4 3 3 3 6 5 3 4 2 4 3 3 2 3 4 8 11 12 11 9 7 7 6 6 5 6 6 7 7 7 7 6 5 4 4 3 3 3 4 2 2 0
5 9 9 3 2 7 5 5 4 4 6 3 1 5 1 4 7 5 3 2 4 3 5 7 9 11 8 6 5 2 2 2 5 5 6 8 8 8 7 5 4 4 3 4 4 4 4 2 1
9 8 11 8 1 2 9 6 9 8 6 4 3 4 3 3 2 3 2 1 1 3 5 7 10 12 12 9 6 5 3 4 6 6 7 8 10 10 9 8 6 5 6 5 5 5 5 5 3
14 6 6 4 8 8 7 4 9 4 1 2 2 4 2 2 1 4 3 5 5 5 8 10 12 12 11 11 8 7 5 5 4 5 5 4 9 10 11 10 9 8 7 4 5 6 6 5 6
7 5 4 4 6 7 3 12 13 5 6 4 3 4 3 2 3 4 2 4 5 6 8 10 9 10 10 12 10 8 8 5 6 6 4 7 6 9 11 11 10 9 8 7 7 6 7 5 7
5 4 5 4 5 10 6 7 11 9 7 7 8 7 5 5 3 4 2 3 5 6 8 9 11 11 12 12 12 11 10 7 7 8 6 6 6 8 10 11 10 10 9 8 8 8 9 9 7
5 9 3 4 2 7 3 7 8 8 4 4 4 6 7 6 8 9 7 8 5 7 7 8 11 12 13 14 13 12 11 9 9 9 8 5 7 7 9 10 10 9 11 10 9 9 9 9 9
5 6 8 10 6 1 5 4 9 6 4 3 2 4 8 10 10 11 13 11 10 7 5 9 10 11 13 13 11 9 9 8 7 9 7 7 6 6 5 8 10 11 12 11 10 8 9 9 8
6 7 5 7 4 11 2 6 6 9 7 5 7 8 10 10 10 11 12 10 10 7 2 8 9 9 8 9 8 8 7 10 8 9 8 8 7 6 8 8 10 10 11 11 10 9 10 9 9
7 3 6 8 7 8 2 5 7 10 7 5 6 9 9 8 10 9 10 11 9 8 5 5 7 8 7 7 8 6 6 8 9 8 7 10 7 7 8 11 11 10 10 10 10 10 11 9 11
5 8 4 6 6 10 7 6 6 8 6 5 7 7 6 7 8 9 9 10 10 12 10 6 5 5 5 5 7 6 7 8 8 8 8 8 8 10 11 11 11 11 11 10 9 11 13 13 11
5 5 4 8 3 4 8 9 5 7 5 5 6 5 6 6 9 9 9 10 10 11 11 8 5 5 5 4 6 6 6 8 7 8 5 6 7 8 10 9 9 10 10 10 11 13 11 10 10
Wind_Direction
177 204 252 238 222 112 67 68 9 53 80 65 79 358 56 30 6 34 132 116 141 129 120 151 155 150 157 138 125 148 143 132 130 120 107 91 71 70 57 53 28 19 21 14 7 0 358 345 348
197 232 227 269 292 83 71 51 60 50 76 103 109 155 45 70 58 113 138 145 154 128 139 136 148 146 152 130 136 138 134 144 142 137 127 95 79 89 74 55 40 28 26 23 18 6 344 335 332
245 270 280 357 43 55 85 77 72 97 90 54 100 39 29 83 105 129 105 151 145 143 124 110 147 149 141 145 144 149 156 156 152 152 139 118 115 104 86 78 71 66 56 36 24 19 3 343 331
242 191 207 34 71 81 58 86 58 114 112 76 65 83 99 34 126 115 135 147 143 140 139 127 147 147 148 146 146 156 168 171 166 155 147 136 120 113 104 92 79 67 48 27 6 346 339 334 316
234 238 127 83 95 90 84 39 67 119 91 81 348 103 101 105 103 124 141 157 157 148 139 142 151 153 158 158 158 162 169 171 167 163 155 150 136 124 112 90 69 51 35 13 3 344 329 329 325
229 281 183 76 96 113 109 121 158 121 104 104 108 103 102 124 151 150 157 166 159 148 144 128 153 162 167 167 164 162 163 162 170 159 169 186 197 195 174 113 52 23 3 3 4 14 3 354 336
305 287 34 51 95 181 92 175 174 62 52 86 103 84 114 155 142 160 171 166 167 155 164 156 159 164 168 168 163 167 164 162 167 182 227 250 250 246 255 279 340 352 342 356 358 360 357 343 346
278 267 251 116 63 118 143 191 60 6 71 97 26 43 127 137 156 167 172 173 172 167 170 167 168 167 176 157 168 172 175 178 182 222 300 301 257 241 226 240 162 350 2 5 2 1 355 343 360
290 260 60 45 267 58 143 186 160 70 136 131 92 66 92 134 164 174 176 176 178 181 188 183 179 160 184 143 148 178 183 195 205 200 197 231 259 38 189 59 57 42 16 22 16 0 341 297 217
272 291 23 359 344 323 162 231 148 179 155 132 116 102 122 157 174 181 185 186 189 194 196 190 188 178 166 175 156 197 157 184 125 62 201 268 30 27 24 82 112 97 60 214 254 292 278 255 331
82 358 358 15 2 322 344 226 75 358 182 106 123 126 152 171 184 195 200 208 197 203 196 193 188 186 180 201 183 190 174 172 167 183 264 52 325 86 76 70 100 107 181 305 295 285 297 3 331
280 23 350 10 15 296 123 91 106 64 61 22 55 133 156 179 188 212 215 206 218 208 202 192 192 188 195 198 189 204 205 194 202 152 180 127 207 148 344 19 41 262 31 336 330 318 355 304 311
258 45 2 51 121 53 107 79 67 80 45 84 115 143 172 189 208 218 247 260 239 218 205 206 201 188 185 196 190 244 215 201 180 199 142 98 185 67 263 59 13 14 352 356 345 351 348 324 293
7 356 61 64 70 110 246 112 240 81 16 119 140 152 174 203 251 267 265 268 260 248 224 214 198 191 186 192 202 211 215 206 212 198 153 173 218 173 9 63 28 32 356 358 335 11 337 335 318
176 241 228 159 12 130 301 220 67 58 87 93 142 142 215 236 263 274 291 301 297 264 229 215 205 188 196 186 194 214 220 215 219 202 183 200 213 173 319 25 331 27 350 329 341 270 237 275 236
248 256 275 87 357 118 242 83 124 71 110 86 109 151 243 301 290 324 319 322 324 291 249 217 199 191 193 184 193 213 216 224 224 210 193 200 190 211 245 283 343 33 301 330 356 319 294 295 273
187 12 356 137 43 321 252 3 132 103 69 347 245 194 164 194 161 100 348 347 10 17 186 193 202 197 188 179 199 214 220 225 224 215 207 194 211 200 248 265 352 268 311 329 328 310 312 295 297
39 349 89 322 64 268 312 40 123 168 312 68 76 200 207 212 133 35 355 21 25 71 136 179 190 193 187 173 200 214 221 228 219 211 214 194 219 220 225 252 299 267 283 250 351 325 346 308 323
328 302 301 82 53 294 10 314 104 151 200 174 206 189 218 273 129 138 84 63 75 108 159 174 178 176 181 181 191 196 219 218 227 226 216 208 227 217 211 244 195 233 263 313 273 275 215 246 161
308 302 276 177 142 285 9 335 69 141 116 145 184 198 138 137 168 158 115 79 53 130 173 168 170 166 189 187 205 254 298 240 249 222 215 226 216 225 225 246 206 207 235 225 247 260 289 237 323
274 311 311 316 90 186 304 166 120 126 140 134 147 177 147 57 237 181 160 26 211 174 163 171 178 179 183 186 177 176 158 220 240 235 221 214 219 218 220 210 232 192 247 216 216 228 258 288 217
294 359 276 260 273 357 359 341 112 148 101 186 158 140 61 44 334 223 217 208 211 182 167 179 189 186 190 192 189 195 214 212 280 256 219 226 219 215 212 209 208 210 223 236 218 225 263 241 273
338 305 239 219 264 293 147 279 104 163 138 82 87 83 78 17 356 353 260 227 216 165 180 190 188 196 208 196 213 193 214 203 235 245 229 234 207 226 213 206 211 215 225 208 244 227 230 240 270
130 163 197 200 273 260 79 298 106 78 46 69 67 63 58 33 347 9 345 266 242 201 190 187 188 199 208 214 203 207 211 217 217 222 228 217 205 203 213 210 216 221 229 228 222 225 228 240 260
250 220 213 256 297 292 120 250 48 78 56 18 34 53 47 15 22 7 11 352 332 215 216 208 192 204 212 218 217 208 215 211 233 219 230 222 215 214 197 215 221 226 224 232 226 215 235 232 243
240 299 310 305 289 23 154 259 93 77 70 118 120 54 38 19 16 16 26 16 9 359 214 217 205 214 216 223 227 224 226 234 230 223 248 227 230 219 216 213 226 231 235 223 223 228 233 239 241
119 245 17 289 205 265 55 145 138 141 115 122 81 55 44 44 45 40 45 32 26 23 247 230 234 235 245 248 247 236 223 241 232 229 225 232 232 238 230 227 232 232 230 227 227 238 244 244 246
292 64 225 199 275 288 143 238 119 174 134 100 70 66 69 52 43 38 34 32 24 19 21 289 264 273 292 282 268 250 240 233 233 234 233 244 232 229 234 234 238 233 229 228 229 241 241 243 256
178 206 247 298 294 311 292 74 77 113 100 93 90 85 70 51 33 21 25 30 19 16 23 359 335 320 321 312 306 279 267 260 244 224 221 237 228 235 238 238 241 236 233 236 242 252 259 265 270
296 330 276 285 151 241 302 298 86 122 122 123 111 95 61 42 20 14 21 19 21 16 9 38 25 3 11 345 340 314 284 264 255 235 197 249 238 235 242 240 236 246 250 242 242 252 260 267 250